User: anonymous   Login
Location: Caltech
(34.1382°N, 118.1253°W)
Time: 02:21:25
(UTC-07:00)
Language:

SL-16 R/B - Orbit

View from above orbital plane
View from above orbital plane
View from above satellite
View from above satellite

Ground track
Ground track

The orbit data is extracted from the following two-line orbital elements,

1 31793U 07029B   17266.19473164  .00000310  00000-0  18716-3 0  9998
2 31793  70.9761 183.2956 0002181 280.0503 229.6714 14.14387354528577
Epoch (UTC): 23 September 2017 04:40:24
Eccentricity: 0.0002181
inclination: 70.9761°
perigee height: 843 km
apogee height: 846 km
right ascension of ascending node: 183.2956°
argument of perigee: 280.0503°
revolutions per day: 14.14387354
mean anomaly at epoch: 229.6714°
orbit number at epoch: 52857

The dashed part of the orbit path shows where the satellite is in the earth's shadow,  

DLR